Time,TemperatureF,DewpointF,PressureIn,WindDirection,WindDirectionDegrees,WindSpeedMPH,WindSpeedGustMPH,Humidity,HourlyPrecipIn,Conditions,Clouds,dailyrainin,SoftwareType,DateUTC
2013-05-30 00:05:00,40.8,20.5,29.29,NNW,341,0.0,11.0,44,0.00,,,0.00,Wunderground v.1.15,2013-05-30 06:05:00,
2013-05-30 00:10:00,40.6,20.4,29.29,NNW,341,0.0,11.0,44,0.00,,,0.00,Wunderground v.1.15,2013-05-30 06:10:00,
2013-05-30 00:15:00,40.6,20.9,29.30,NNW,341,0.0,11.0,45,0.00,,,0.00,Wunderground v.1.15,2013-05-30 06:15:00,
2013-05-30 00:20:00,40.3,20.6,29.30,NNW,341,0.0,11.0,45,0.00,,,0.00,Wunderground v.1.15,2013-05-30 06:20:00,
2013-05-30 00:25:00,40.1,20.4,29.30,NNW,341,0.0,11.0,45,0.00,,,0.00,Wunderground v.1.15,2013-05-30 06:25:00,
2013-05-30 00:35:00,39.5,20.9,29.30,NNW,341,0.0,11.0,47,0.00,,,0.00,Wunderground v.1.15,2013-05-30 06:35:00,
2013-05-30 00:40:00,39.2,20.6,29.30,NNW,341,0.0,11.0,47,0.00,,,0.00,Wunderground v.1.15,2013-05-30 06:40:00,
2013-05-30 00:50:00,39.1,21.0,29.30,NW,309,0.0,11.0,48,0.00,,,0.00,Wunderground v.1.15,2013-05-30 06:50:00,
2013-05-30 00:55:00,39.2,21.1,29.30,NW,309,0.0,11.0,48,0.00,,,0.00,Wunderground v.1.15,2013-05-30 06:55:00,
2013-05-30 01:00:00,39.3,21.2,29.30,NE,54,0.0,11.0,48,0.00,,,0.00,Wunderground v.1.15,2013-05-30 07:00:00,
2013-05-30 01:05:00,39.7,21.6,29.30,ENE,58,0.0,11.0,48,0.00,,,0.00,Wunderground v.1.15,2013-05-30 07:05:00,
2013-05-30 01:10:00,40.1,21.5,29.30,NE,48,0.0,11.0,47,0.00,,,0.00,Wunderground v.1.15,2013-05-30 07:10:00,
2013-05-30 01:15:00,40.4,21.7,29.30,NW,319,0.0,11.0,47,0.00,,,0.00,Wunderground v.1.15,2013-05-30 07:15:00,
2013-05-30 01:20:00,40.6,21.9,29.30,NW,319,0.0,11.0,47,0.00,,,0.00,Wunderground v.1.15,2013-05-30 07:20:00,
2013-05-30 01:25:00,40.6,21.9,29.30,NW,319,0.0,11.0,47,0.00,,,0.00,Wunderground v.1.15,2013-05-30 07:25:00,
2013-05-30 01:30:00,40.5,21.8,29.30,NW,319,0.0,11.0,47,0.00,,,0.00,Wunderground v.1.15,2013-05-30 07:30:00,
2013-05-30 01:35:00,40.4,21.7,29.30,West,263,0.0,11.0,47,0.00,,,0.00,Wunderground v.1.15,2013-05-30 07:35:00,
2013-05-30 01:40:00,40.2,21.6,29.30,West,263,0.0,11.0,47,0.00,,,0.00,Wunderground v.1.15,2013-05-30 07:40:00,
2013-05-30 01:45:00,40.1,22.0,29.30,West,263,0.0,11.0,48,0.00,,,0.00,Wunderground v.1.15,2013-05-30 07:45:00,
2013-05-30 01:50:00,39.8,21.7,29.30,West,263,0.0,11.0,48,0.00,,,0.00,Wunderground v.1.15,2013-05-30 07:50:00,
2013-05-30 01:55:00,39.5,21.9,29.29,West,263,0.0,11.0,49,0.00,,,0.00,Wunderground v.1.15,2013-05-30 07:55:00,
2013-05-30 02:00:00,39.2,22.1,29.29,West,263,0.0,11.0,50,0.00,,,0.00,Wunderground v.1.15,2013-05-30 08:00:00,
2013-05-30 02:05:00,39.0,21.9,29.29,West,263,0.0,11.0,50,0.00,,,0.00,Wunderground v.1.15,2013-05-30 08:05:00,
2013-05-30 02:10:00,38.9,21.8,29.29,West,263,0.0,11.0,50,0.00,,,0.00,Wunderground v.1.15,2013-05-30 08:10:00,
2013-05-30 02:15:00,38.9,21.8,29.30,West,263,0.0,11.0,50,0.00,,,0.00,Wunderground v.1.15,2013-05-30 08:15:00,
2013-05-30 02:25:00,39.2,22.1,29.30,West,263,0.0,11.0,50,0.00,,,0.00,Wunderground v.1.15,2013-05-30 08:25:00,
2013-05-30 02:30:00,39.3,22.2,29.30,West,263,0.0,11.0,50,0.00,,,0.00,Wunderground v.1.15,2013-05-30 08:30:00,
2013-05-30 02:35:00,39.4,22.3,29.30,West,263,0.0,11.0,50,0.00,,,0.00,Wunderground v.1.15,2013-05-30 08:35:00,
2013-05-30 02:40:00,39.6,22.0,29.30,West,263,0.0,11.0,49,0.00,,,0.00,Wunderground v.1.15,2013-05-30 08:40:00,
2013-05-30 02:50:00,40.0,22.8,29.29,WNW,300,0.0,11.0,50,0.00,,,0.00,Wunderground v.1.15,2013-05-30 08:50:00,
2013-05-30 02:55:00,40.0,22.8,29.30,NW,313,0.0,11.0,50,0.00,,,0.00,Wunderground v.1.15,2013-05-30 08:55:00,
2013-05-30 03:00:00,40.0,22.8,29.29,NW,313,0.0,11.0,50,0.00,,,0.00,Wunderground v.1.15,2013-05-30 09:00:00,
2013-05-30 03:05:00,40.0,22.8,29.30,WSW,238,0.0,11.0,50,0.00,,,0.00,Wunderground v.1.15,2013-05-30 09:05:00,
2013-05-30 03:10:00,40.3,23.1,29.30,NNW,347,0.0,11.0,50,0.00,,,0.00,Wunderground v.1.15,2013-05-30 09:10:00,
2013-05-30 03:15:00,40.4,22.7,29.30,NNW,328,0.0,11.0,49,0.00,,,0.00,Wunderground v.1.15,2013-05-30 09:15:00,
2013-05-30 03:20:00,40.4,23.2,29.29,NNW,328,0.0,11.0,50,0.00,,,0.00,Wunderground v.1.15,2013-05-30 09:20:00,
2013-05-30 03:25:00,40.3,23.1,29.29,NNW,328,0.0,11.0,50,0.00,,,0.00,Wunderground v.1.15,2013-05-30 09:25:00,
2013-05-30 03:35:00,39.7,22.6,29.30,NNW,328,0.0,11.0,50,0.00,,,0.00,Wunderground v.1.15,2013-05-30 09:35:00,
2013-05-30 03:40:00,39.7,23.0,29.29,NNE,13,0.0,11.0,51,0.00,,,0.00,Wunderground v.1.15,2013-05-30 09:40:00,
2013-05-30 03:45:00,39.6,22.5,29.29,NW,323,0.0,11.0,50,0.00,,,0.00,Wunderground v.1.15,2013-05-30 09:45:00,
2013-05-30 03:50:00,39.5,22.8,29.30,West,265,0.0,11.0,51,0.00,,,0.00,Wunderground v.1.15,2013-05-30 09:50:00,
2013-05-30 03:55:00,39.3,22.7,29.29,West,265,0.0,11.0,51,0.00,,,0.00,Wunderground v.1.15,2013-05-30 09:55:00,
2013-05-30 04:00:00,39.2,22.6,29.29,WNW,299,0.0,11.0,51,0.00,,,0.00,Wunderground v.1.15,2013-05-30 10:00:00,
2013-05-30 04:10:00,38.8,22.7,29.29,WNW,299,0.0,11.0,52,0.00,,,0.00,Wunderground v.1.15,2013-05-30 10:10:00,
2013-05-30 04:15:00,38.5,22.8,29.28,WNW,299,0.0,11.0,53,0.00,,,0.00,Wunderground v.1.15,2013-05-30 10:15:00,
2013-05-30 04:20:00,38.3,22.6,29.29,WNW,299,0.0,11.0,53,0.00,,,0.00,Wunderground v.1.15,2013-05-30 10:20:00,
2013-05-30 04:25:00,37.9,22.7,29.28,WNW,299,0.0,11.0,54,0.00,,,0.00,Wunderground v.1.15,2013-05-30 10:25:00,
2013-05-30 04:30:00,37.2,22.5,29.28,WNW,299,0.0,11.0,55,0.00,,,0.00,Wunderground v.1.15,2013-05-30 10:30:00,
2013-05-30 04:35:00,36.4,22.2,29.28,WNW,299,0.0,11.0,56,0.00,,,0.00,Wunderground v.1.15,2013-05-30 10:35:00,
2013-05-30 04:40:00,35.9,22.5,29.28,WNW,299,0.0,11.0,58,0.00,,,0.00,Wunderground v.1.15,2013-05-30 10:40:00,
2013-05-30 04:45:00,35.7,22.4,29.28,East,86,0.0,11.0,58,0.00,,,0.00,Wunderground v.1.15,2013-05-30 10:45:00,
2013-05-30 04:50:00,35.8,22.9,29.28,SE,141,0.0,11.0,59,0.00,,,0.00,Wunderground v.1.15,2013-05-30 10:50:00,
2013-05-30 04:55:00,36.3,22.9,29.28,East,97,1.0,11.0,58,0.00,,,0.00,Wunderground v.1.15,2013-05-30 10:55:00,
2013-05-30 05:00:00,36.7,23.3,29.28,WNW,284,1.0,1.0,58,0.00,,,0.00,Wunderground v.1.15,2013-05-30 11:00:00,
2013-05-30 05:05:00,37.3,23.0,29.28,SW,214,1.0,2.0,56,0.00,,,0.00,Wunderground v.1.15,2013-05-30 11:05:00,
2013-05-30 05:10:00,38.0,23.3,29.28,South,183,1.0,11.0,55,0.00,,,0.00,Wunderground v.1.15,2013-05-30 11:10:00,
2013-05-30 05:15:00,38.8,23.1,29.29,NNE,12,1.0,11.0,53,0.00,,,0.00,Wunderground v.1.15,2013-05-30 11:15:00,
2013-05-30 05:20:00,39.5,22.8,29.28,ENE,70,1.0,1.0,51,0.00,,,0.00,Wunderground v.1.15,2013-05-30 11:20:00,
2013-05-30 05:25:00,40.0,22.8,29.28,NE,53,1.0,4.0,50,0.00,,,0.00,Wunderground v.1.15,2013-05-30 11:25:00,
2013-05-30 05:30:00,40.4,23.2,29.29,SSW,200,2.0,2.0,50,0.00,,,0.00,Wunderground v.1.15,2013-05-30 11:30:00,
2013-05-30 05:40:00,40.7,22.5,29.29,NNE,26,1.0,11.0,48,0.00,,,0.00,Wunderground v.1.15,2013-05-30 11:40:00,
2013-05-30 05:45:00,40.8,22.6,29.29,NE,56,2.0,11.0,48,0.00,,,0.00,Wunderground v.1.15,2013-05-30 11:45:00,
2013-05-30 05:50:00,40.6,22.9,29.29,ENE,69,1.0,1.0,49,0.00,,,0.00,Wunderground v.1.15,2013-05-30 11:50:00,
2013-05-30 05:55:00,40.4,22.7,29.29,ESE,119,1.0,11.0,49,0.00,,,0.00,Wunderground v.1.15,2013-05-30 11:55:00,
2013-05-30 06:00:00,40.4,22.7,29.29,NNW,331,1.0,1.0,49,0.00,,,0.00,Wunderground v.1.15,2013-05-30 12:00:00,
2013-05-30 06:05:00,40.3,22.6,29.30,East,86,1.0,11.0,49,0.00,,,0.00,Wunderground v.1.15,2013-05-30 12:05:00,
2013-05-30 06:10:00,40.3,22.6,29.30,WNW,292,1.0,1.0,49,0.00,,,0.00,Wunderground v.1.15,2013-05-30 12:10:00,
2013-05-30 06:15:00,40.4,22.7,29.30,East,90,1.0,11.0,49,0.00,,,0.00,Wunderground v.1.15,2013-05-30 12:15:00,
2013-05-30 06:25:00,40.5,22.8,29.30,NW,326,1.0,11.0,49,0.00,,,0.00,Wunderground v.1.15,2013-05-30 12:25:00,
2013-05-30 06:30:00,40.5,22.3,29.30,ENE,67,1.0,11.0,48,0.00,,,0.00,Wunderground v.1.15,2013-05-30 12:30:00,
2013-05-30 06:35:00,40.7,22.0,29.31,NW,323,1.0,1.0,47,0.00,,,0.00,Wunderground v.1.15,2013-05-30 12:35:00,
2013-05-30 06:45:00,41.5,22.2,29.31,West,265,1.0,1.0,46,0.00,,,0.00,Wunderground v.1.15,2013-05-30 12:45:00,
2013-05-30 06:50:00,42.4,22.5,29.31,NW,314,1.0,11.0,45,0.00,,,0.00,Wunderground v.1.15,2013-05-30 12:50:00,
2013-05-30 07:00:00,43.9,21.7,29.31,North,355,2.0,2.0,41,0.00,,,0.00,Wunderground v.1.15,2013-05-30 13:00:00,
2013-05-30 07:05:00,44.5,21.6,29.31,ESE,118,2.0,4.0,40,0.00,,,0.00,Wunderground v.1.15,2013-05-30 13:05:00,
2013-05-30 07:10:00,45.0,20.9,29.31,SW,215,3.0,11.0,38,0.00,,,0.00,Wunderground v.1.15,2013-05-30 13:10:00,
2013-05-30 07:15:00,45.2,21.1,29.31,NNE,29,3.0,11.0,38,0.00,,,0.00,Wunderground v.1.15,2013-05-30 13:15:00,
2013-05-30 07:20:00,45.6,20.8,29.31,SE,139,3.0,11.0,37,0.00,,,0.00,Wunderground v.1.15,2013-05-30 13:20:00,
2013-05-30 07:25:00,45.8,21.0,29.31,NE,40,3.0,11.0,37,0.00,,,0.00,Wunderground v.1.15,2013-05-30 13:25:00,
2013-05-30 07:30:00,45.9,20.4,29.32,WNW,292,4.0,11.0,36,0.00,,,0.00,Wunderground v.1.15,2013-05-30 13:30:00,
2013-05-30 07:35:00,46.0,21.1,29.31,NNE,27,3.0,11.0,37,0.00,,,0.00,Wunderground v.1.15,2013-05-30 13:35:00,
2013-05-30 07:40:00,46.3,20.8,29.32,ENE,57,3.0,3.0,36,0.00,,,0.00,Wunderground v.1.15,2013-05-30 13:40:00,
2013-05-30 07:50:00,46.8,20.6,29.31,NNE,14,4.0,4.0,35,0.00,,,0.00,Wunderground v.1.15,2013-05-30 13:50:00,
2013-05-30 07:55:00,47.2,19.5,29.31,North,355,3.0,11.0,33,0.00,,,0.00,Wunderground v.1.15,2013-05-30 13:55:00,
2013-05-30 08:00:00,47.2,19.5,29.31,NNW,340,4.0,4.0,33,0.00,,,0.00,Wunderground v.1.15,2013-05-30 14:00:00,
2013-05-30 08:05:00,47.2,19.5,29.31,WSW,250,5.0,13.0,33,0.00,,,0.00,Wunderground v.1.15,2013-05-30 14:05:00,
2013-05-30 08:10:00,47.1,19.4,29.32,WNW,298,6.0,6.0,33,0.00,,,0.00,Wunderground v.1.15,2013-05-30 14:10:00,
2013-05-30 08:15:00,47.3,18.9,29.32,NNW,338,5.0,11.0,32,0.00,,,0.00,Wunderground v.1.15,2013-05-30 14:15:00,
2013-05-30 08:20:00,47.5,19.1,29.32,NNW,329,4.0,4.0,32,0.00,,,0.00,Wunderground v.1.15,2013-05-30 14:20:00,
2013-05-30 08:25:00,47.9,18.7,29.32,North,355,4.0,5.0,31,0.00,,,0.00,Wunderground v.1.15,2013-05-30 14:25:00,
2013-05-30 08:30:00,48.2,18.2,29.32,NNE,17,4.0,11.0,30,0.00,,,0.00,Wunderground v.1.15,2013-05-30 14:30:00,
2013-05-30 08:35:00,48.3,18.3,29.32,North,9,5.0,11.0,30,0.00,,,0.00,Wunderground v.1.15,2013-05-30 14:35:00,
2013-05-30 08:40:00,48.2,18.9,29.33,West,273,6.0,6.0,31,0.00,,,0.00,Wunderground v.1.15,2013-05-30 14:40:00,
2013-05-30 08:45:00,48.3,17.5,29.32,SW,227,6.0,11.0,29,0.00,,,0.00,Wunderground v.1.15,2013-05-30 14:45:00,
2013-05-30 08:50:00,48.6,17.7,29.33,WSW,241,5.0,5.0,29,0.00,,,0.00,Wunderground v.1.15,2013-05-30 14:50:00,
2013-05-30 08:55:00,48.7,17.8,29.33,SE,140,5.0,9.0,29,0.00,,,0.00,Wunderground v.1.15,2013-05-30 14:55:00,
2013-05-30 09:00:00,48.8,17.9,29.33,WNW,299,5.0,11.0,29,0.00,,,0.00,Wunderground v.1.15,2013-05-30 15:00:00,
2013-05-30 09:05:00,49.2,18.3,29.33,North,5,4.0,11.0,29,0.00,,,0.00,Wunderground v.1.15,2013-05-30 15:05:00,
2013-05-30 09:10:00,49.6,17.8,29.33,NNW,331,4.0,4.0,28,0.00,,,0.00,Wunderground v.1.15,2013-05-30 15:10:00,
2013-05-30 09:15:00,49.9,17.2,29.33,NNW,347,4.0,6.0,27,0.00,,,0.00,Wunderground v.1.15,2013-05-30 15:15:00,
2013-05-30 09:20:00,50.1,18.2,29.33,ESE,108,5.0,5.0,28,0.00,,,0.00,Wunderground v.1.15,2013-05-30 15:20:00,
2013-05-30 09:25:00,50.6,17.8,29.32,NNW,335,4.0,11.0,27,0.00,,,0.00,Wunderground v.1.15,2013-05-30 15:25:00,
2013-05-30 09:30:00,50.8,18.0,29.33,NNE,24,4.0,11.0,27,0.00,,,0.00,Wunderground v.1.15,2013-05-30 15:30:00,
2013-05-30 09:35:00,50.9,18.1,29.33,SSW,213,5.0,11.0,27,0.00,,,0.00,Wunderground v.1.15,2013-05-30 15:35:00,
2013-05-30 09:40:00,51.1,17.4,29.33,NNE,21,5.0,11.0,26,0.00,,,0.00,Wunderground v.1.15,2013-05-30 15:40:00,
2013-05-30 09:45:00,51.5,18.6,29.33,North,350,4.0,11.0,27,0.00,,,0.00,Wunderground v.1.15,2013-05-30 15:45:00,
2013-05-30 09:50:00,51.5,17.7,29.33,South,174,5.0,5.0,26,0.00,,,0.00,Wunderground v.1.15,2013-05-30 15:50:00,
2013-05-30 09:55:00,51.2,15.6,29.33,NW,319,6.0,6.0,24,0.00,,,0.00,Wunderground v.1.15,2013-05-30 15:55:00,
2013-05-30 10:00:00,51.4,15.8,29.33,North,355,5.0,5.0,24,0.00,,,0.00,Wunderground v.1.15,2013-05-30 16:00:00,
2013-05-30 10:05:00,51.7,16.0,29.33,ENE,75,5.0,11.0,24,0.00,,,0.00,Wunderground v.1.15,2013-05-30 16:05:00,
2013-05-30 10:10:00,52.4,15.6,29.33,WSW,257,4.0,4.0,23,0.00,,,0.00,Wunderground v.1.15,2013-05-30 16:10:00,
2013-05-30 10:15:00,52.8,14.9,29.34,SSW,196,4.0,11.0,22,0.00,,,0.00,Wunderground v.1.15,2013-05-30 16:15:00,
2013-05-30 10:20:00,52.7,14.9,29.34,SSE,159,4.0,11.0,22,0.00,,,0.00,Wunderground v.1.15,2013-05-30 16:20:00,
2013-05-30 10:25:00,53.2,14.2,29.34,North,11,4.0,11.0,21,0.00,,,0.00,Wunderground v.1.15,2013-05-30 16:25:00,
2013-05-30 10:30:00,53.8,14.7,29.34,NNE,22,4.0,11.0,21,0.00,,,0.00,Wunderground v.1.15,2013-05-30 16:30:00,
2013-05-30 10:40:00,54.0,16.0,29.35,SE,144,3.0,3.0,22,0.00,,,0.00,Wunderground v.1.15,2013-05-30 16:40:00,
2013-05-30 10:45:00,54.2,13.9,29.35,NNW,347,3.0,11.0,20,0.00,,,0.00,Wunderground v.1.15,2013-05-30 16:45:00,
2013-05-30 10:50:00,54.4,12.9,29.36,WSW,238,5.0,11.0,19,0.00,,,0.00,Wunderground v.1.15,2013-05-30 16:50:00,
2013-05-30 11:00:00,54.6,13.1,29.36,WNW,282,4.0,4.0,19,0.00,,,0.00,Wunderground v.1.15,2013-05-30 17:00:00,
2013-05-30 11:05:00,54.5,13.0,29.35,NNE,15,5.0,5.0,19,0.00,,,0.00,Wunderground v.1.15,2013-05-30 17:05:00,
2013-05-30 11:10:00,54.5,14.2,29.35,North,5,4.0,4.0,20,0.00,,,0.00,Wunderground v.1.15,2013-05-30 17:10:00,
2013-05-30 11:15:00,55.0,14.6,29.36,NNE,24,3.0,6.0,20,0.00,,,0.00,Wunderground v.1.15,2013-05-30 17:15:00,
2013-05-30 11:30:00,55.2,12.4,29.35,NNW,327,3.0,11.0,18,0.00,,,0.00,Wunderground v.1.15,2013-05-30 17:30:00,
2013-05-30 11:35:00,55.9,12.9,29.35,NW,316,3.0,11.0,18,0.00,,,0.00,Wunderground v.1.15,2013-05-30 17:35:00,
2013-05-30 11:45:00,56.1,11.8,29.34,North,5,4.0,11.0,17,0.00,,,0.00,Wunderground v.1.15,2013-05-30 17:45:00,
2013-05-30 11:50:00,56.3,12.0,29.35,WSW,253,4.0,11.0,17,0.00,,,0.00,Wunderground v.1.15,2013-05-30 17:50:00,
2013-05-30 11:55:00,56.5,12.1,29.35,North,11,3.0,11.0,17,0.00,,,0.00,Wunderground v.1.15,2013-05-30 17:55:00,
2013-05-30 12:00:00,56.8,13.7,29.35,NE,48,4.0,4.0,18,0.00,,,0.00,Wunderground v.1.15,2013-05-30 18:00:00,
2013-05-30 12:05:00,57.5,13.0,29.35,North,355,4.0,11.0,17,0.00,,,0.00,Wunderground v.1.15,2013-05-30 18:05:00,
2013-05-30 12:15:00,57.5,11.6,29.35,West,269,4.0,10.0,16,0.00,,,0.00,Wunderground v.1.15,2013-05-30 18:15:00,
2013-05-30 12:20:00,57.6,13.0,29.35,NNW,345,3.0,13.0,17,0.00,,,0.00,Wunderground v.1.15,2013-05-30 18:20:00,
2013-05-30 12:25:00,57.2,12.7,29.35,East,100,5.0,13.0,17,0.00,,,0.00,Wunderground v.1.15,2013-05-30 18:25:00,
2013-05-30 12:35:00,57.0,11.2,29.36,NNW,342,6.0,11.0,16,0.00,,,0.00,Wunderground v.1.15,2013-05-30 18:35:00,
2013-05-30 12:40:00,56.6,12.2,29.35,NNW,346,6.0,11.0,17,0.00,,,0.00,Wunderground v.1.15,2013-05-30 18:40:00,
2013-05-30 12:45:00,57.2,11.3,29.35,ENE,78,5.0,5.0,16,0.00,,,0.00,Wunderground v.1.15,2013-05-30 18:45:00,
2013-05-30 12:50:00,57.4,11.5,29.35,NW,310,4.0,11.0,16,0.00,,,0.00,Wunderground v.1.15,2013-05-30 18:50:00,
2013-05-30 12:55:00,57.7,10.3,29.35,SSW,192,4.0,4.0,15,0.00,,,0.00,Wunderground v.1.15,2013-05-30 18:55:00,
2013-05-30 13:00:00,57.4,10.0,29.35,WSW,256,5.0,5.0,15,0.00,,,0.00,Wunderground v.1.15,2013-05-30 19:00:00,
2013-05-30 13:05:00,57.9,10.5,29.34,NNW,342,5.0,11.0,15,0.00,,,0.00,Wunderground v.1.15,2013-05-30 19:05:00,
2013-05-30 13:10:00,58.3,9.2,29.35,NW,311,5.0,11.0,14,0.00,,,0.00,Wunderground v.1.15,2013-05-30 19:10:00,
2013-05-30 13:20:00,58.4,10.9,29.34,NNE,28,4.0,4.0,15,0.00,,,0.00,Wunderground v.1.15,2013-05-30 19:20:00,
2013-05-30 13:25:00,57.7,11.7,29.35,West,259,4.0,11.0,16,0.00,,,0.00,Wunderground v.1.15,2013-05-30 19:25:00,
2013-05-30 13:30:00,58.1,12.1,29.34,North,11,5.0,11.0,16,0.00,,,0.00,Wunderground v.1.15,2013-05-30 19:30:00,
2013-05-30 13:35:00,58.5,13.8,29.34,North,349,4.0,11.0,17,0.00,,,0.00,Wunderground v.1.15,2013-05-30 19:35:00,
2013-05-30 13:45:00,59.0,12.8,29.35,NNE,29,4.0,10.0,16,0.00,,,0.00,Wunderground v.1.15,2013-05-30 19:45:00,
2013-05-30 13:50:00,59.0,12.8,29.35,SW,215,4.0,11.0,16,0.00,,,0.00,Wunderground v.1.15,2013-05-30 19:50:00,
2013-05-30 14:00:00,58.7,13.9,29.35,NNW,333,5.0,11.0,17,0.00,,,0.00,Wunderground v.1.15,2013-05-30 20:00:00,
2013-05-30 14:10:00,58.2,14.8,29.34,NNE,23,4.0,11.0,18,0.00,,,0.00,Wunderground v.1.15,2013-05-30 20:10:00,
2013-05-30 14:15:00,59.2,15.7,29.34,NNE,27,4.0,11.0,18,0.00,,,0.00,Wunderground v.1.15,2013-05-30 20:15:00,
2013-05-30 14:20:00,60.2,15.2,29.34,South,191,4.0,11.0,17,0.00,,,0.00,Wunderground v.1.15,2013-05-30 20:20:00,
2013-05-30 14:30:00,59.7,13.4,29.35,North,360,5.0,5.0,16,0.00,,,0.00,Wunderground v.1.15,2013-05-30 20:30:00,
2013-05-30 14:35:00,58.9,15.4,29.34,South,187,5.0,11.0,18,0.00,,,0.00,Wunderground v.1.15,2013-05-30 20:35:00,
2013-05-30 14:40:00,58.5,13.8,29.34,North,355,5.0,11.0,17,0.00,,,0.00,Wunderground v.1.15,2013-05-30 20:40:00,
2013-05-30 14:45:00,58.0,14.7,29.33,SSE,167,4.0,11.0,18,0.00,,,0.00,Wunderground v.1.15,2013-05-30 20:45:00,
2013-05-30 14:50:00,58.6,15.2,29.34,NE,41,4.0,4.0,18,0.00,,,0.00,Wunderground v.1.15,2013-05-30 20:50:00,
2013-05-30 14:55:00,59.2,14.3,29.33,ENE,70,5.0,8.0,17,0.00,,,0.00,Wunderground v.1.15,2013-05-30 20:55:00,
2013-05-30 15:05:00,59.9,14.9,29.35,North,5,5.0,11.0,17,0.00,,,0.00,Wunderground v.1.15,2013-05-30 21:05:00,
2013-05-30 15:10:00,60.3,15.2,29.35,NW,311,5.0,11.0,17,0.00,,,0.00,Wunderground v.1.15,2013-05-30 21:10:00,
2013-05-30 15:15:00,60.3,15.2,29.35,SW,226,5.0,11.0,17,0.00,,,0.00,Wunderground v.1.15,2013-05-30 21:15:00,
2013-05-30 15:25:00,60.5,15.4,29.35,NE,46,4.0,11.0,17,0.00,,,0.00,Wunderground v.1.15,2013-05-30 21:25:00,
2013-05-30 15:35:00,60.2,15.2,29.34,NNE,16,4.0,11.0,17,0.00,,,0.00,Wunderground v.1.15,2013-05-30 21:35:00,
2013-05-30 15:40:00,60.0,16.3,29.34,NW,323,3.0,11.0,18,0.00,,,0.00,Wunderground v.1.15,2013-05-30 21:40:00,
2013-05-30 15:45:00,60.2,16.5,29.34,NNW,344,3.0,14.0,18,0.00,,,0.00,Wunderground v.1.15,2013-05-30 21:45:00,
2013-05-30 15:55:00,60.1,16.4,29.34,North,351,4.0,11.0,18,0.00,,,0.00,Wunderground v.1.15,2013-05-30 21:55:00,
2013-05-30 16:00:00,60.0,15.0,29.34,SW,217,4.0,4.0,17,0.00,,,0.00,Wunderground v.1.15,2013-05-30 22:00:00,
2013-05-30 16:05:00,60.0,16.3,29.34,SSW,211,3.0,11.0,18,0.00,,,0.00,Wunderground v.1.15,2013-05-30 22:05:00,
2013-05-30 16:15:00,60.3,15.2,29.34,SW,224,6.0,6.0,17,0.00,,,0.00,Wunderground v.1.15,2013-05-30 22:15:00,
2013-05-30 16:20:00,60.4,16.6,29.33,North,355,5.0,5.0,18,0.00,,,0.00,Wunderground v.1.15,2013-05-30 22:20:00,
2013-05-30 16:25:00,60.6,15.5,29.34,ENE,60,4.0,11.0,17,0.00,,,0.00,Wunderground v.1.15,2013-05-30 22:25:00,
2013-05-30 16:30:00,60.2,15.2,29.34,SW,224,4.0,11.0,17,0.00,,,0.00,Wunderground v.1.15,2013-05-30 22:30:00,
2013-05-30 16:35:00,60.5,15.4,29.34,ENE,63,4.0,11.0,17,0.00,,,0.00,Wunderground v.1.15,2013-05-30 22:35:00,
2013-05-30 16:40:00,60.2,15.2,29.34,WNW,292,4.0,4.0,17,0.00,,,0.00,Wunderground v.1.15,2013-05-30 22:40:00,
2013-05-30 16:45:00,60.3,15.2,29.34,NNE,26,4.0,8.0,17,0.00,,,0.00,Wunderground v.1.15,2013-05-30 22:45:00,
2013-05-30 16:55:00,60.5,15.4,29.34,NNW,333,4.0,11.0,17,0.00,,,0.00,Wunderground v.1.15,2013-05-30 22:55:00,
2013-05-30 17:00:00,60.7,15.6,29.34,NNE,24,3.0,3.0,17,0.00,,,0.00,Wunderground v.1.15,2013-05-30 23:00:00,
2013-05-30 17:05:00,60.6,16.8,29.34,WNW,300,3.0,7.0,18,0.00,,,0.00,Wunderground v.1.15,2013-05-30 23:05:00,
2013-05-30 17:10:00,60.6,16.8,29.34,NE,51,3.0,11.0,18,0.00,,,0.00,Wunderground v.1.15,2013-05-30 23:10:00,
2013-05-30 17:15:00,60.6,16.8,29.34,WSW,243,4.0,11.0,18,0.00,,,0.00,Wunderground v.1.15,2013-05-30 23:15:00,
2013-05-30 17:20:00,60.7,16.9,29.34,NE,35,4.0,4.0,18,0.00,,,0.00,Wunderground v.1.15,2013-05-30 23:20:00,
2013-05-30 17:25:00,60.5,15.4,29.34,NNE,13,4.0,11.0,17,0.00,,,0.00,Wunderground v.1.15,2013-05-30 23:25:00,
2013-05-30 17:30:00,60.2,15.2,29.34,NE,45,3.0,3.0,17,0.00,,,0.00,Wunderground v.1.15,2013-05-30 23:30:00,
2013-05-30 17:35:00,59.5,15.9,29.34,NNW,342,3.0,11.0,18,0.00,,,0.00,Wunderground v.1.15,2013-05-30 23:35:00,
2013-05-30 17:40:00,59.5,15.9,29.35,South,174,3.0,11.0,18,0.00,,,0.00,Wunderground v.1.15,2013-05-30 23:40:00,
2013-05-30 17:50:00,59.7,16.1,29.35,NW,321,2.0,2.0,18,0.00,,,0.00,Wunderground v.1.15,2013-05-30 23:50:00,
2013-05-30 17:55:00,59.3,15.7,29.35,WSW,249,2.0,3.0,18,0.00,,,0.00,Wunderground v.1.15,2013-05-30 23:55:00,
2013-05-30 18:00:00,59.1,16.8,29.35,South,173,3.0,3.0,19,0.00,,,0.00,Wunderground v.1.15,2013-05-31 00:00:00,
2013-05-30 18:05:00,59.0,16.7,29.35,West,264,3.0,11.0,19,0.00,,,0.00,Wunderground v.1.15,2013-05-31 00:05:00,
2013-05-30 18:10:00,58.5,16.3,29.35,North,355,3.0,11.0,19,0.00,,,0.00,Wunderground v.1.15,2013-05-31 00:10:00,
2013-05-30 18:20:00,58.1,16.0,29.36,NNW,342,2.0,2.0,19,0.00,,,0.00,Wunderground v.1.15,2013-05-31 00:20:00,
2013-05-30 18:25:00,57.9,15.8,29.35,East,98,2.0,11.0,19,0.00,,,0.00,Wunderground v.1.15,2013-05-31 00:25:00,
2013-05-30 18:35:00,57.1,16.3,29.36,North,355,3.0,11.0,20,0.00,,,0.00,Wunderground v.1.15,2013-05-31 00:35:00,
2013-05-30 18:45:00,56.7,16.0,29.36,WSW,250,3.0,11.0,20,0.00,,,0.00,Wunderground v.1.15,2013-05-31 00:45:00,
2013-05-30 18:50:00,56.6,15.9,29.37,WNW,298,3.0,11.0,20,0.00,,,0.00,Wunderground v.1.15,2013-05-31 00:50:00,
2013-05-30 19:00:00,56.3,15.7,29.37,NW,324,2.0,2.0,20,0.00,,,0.00,Wunderground v.1.15,2013-05-31 01:00:00,
2013-05-30 19:05:00,56.1,15.5,29.37,NNE,12,1.0,11.0,20,0.00,,,0.00,Wunderground v.1.15,2013-05-31 01:05:00,
2013-05-30 19:10:00,56.1,15.5,29.37,NNE,22,1.0,1.0,20,0.00,,,0.00,Wunderground v.1.15,2013-05-31 01:10:00,
2013-05-30 19:15:00,56.1,16.6,29.38,West,266,1.0,11.0,21,0.00,,,0.00,Wunderground v.1.15,2013-05-31 01:15:00,
2013-05-30 19:20:00,56.2,15.6,29.37,ENE,69,1.0,1.0,20,0.00,,,0.00,Wunderground v.1.15,2013-05-31 01:20:00,
2013-05-30 19:25:00,56.0,15.4,29.38,WNW,284,2.0,3.0,20,0.00,,,0.00,Wunderground v.1.15,2013-05-31 01:25:00,
2013-05-30 19:30:00,55.6,15.1,29.38,WNW,296,2.0,11.0,20,0.00,,,0.00,Wunderground v.1.15,2013-05-31 01:30:00,
2013-05-30 19:35:00,55.3,16.0,29.38,WSW,251,2.0,11.0,21,0.00,,,0.00,Wunderground v.1.15,2013-05-31 01:35:00,
2013-05-30 19:40:00,55.1,15.8,29.39,WNW,284,2.0,11.0,21,0.00,,,0.00,Wunderground v.1.15,2013-05-31 01:40:00,
2013-05-30 19:45:00,54.9,16.7,29.39,North,355,1.0,11.0,22,0.00,,,0.00,Wunderground v.1.15,2013-05-31 01:45:00,
2013-05-30 19:55:00,54.4,16.3,29.39,NNW,346,2.0,11.0,22,0.00,,,0.00,Wunderground v.1.15,2013-05-31 01:55:00,
2013-05-30 20:00:00,54.2,16.1,29.40,NNW,330,2.0,2.0,22,0.00,,,0.00,Wunderground v.1.15,2013-05-31 02:00:00,
2013-05-30 20:05:00,54.0,17.0,29.40,NW,308,1.0,11.0,23,0.00,,,0.00,Wunderground v.1.15,2013-05-31 02:05:00,
2013-05-30 20:10:00,53.7,16.7,29.41,NNW,333,1.0,1.0,23,0.00,,,0.00,Wunderground v.1.15,2013-05-31 02:10:00,
2013-05-30 20:15:00,53.4,16.5,29.41,WNW,288,1.0,11.0,23,0.00,,,0.00,Wunderground v.1.15,2013-05-31 02:15:00,
2013-05-30 20:20:00,53.1,17.2,29.41,NNE,13,0.0,11.0,24,0.00,,,0.00,Wunderground v.1.15,2013-05-31 02:20:00,
2013-05-30 20:25:00,52.8,16.9,29.41,West,268,1.0,11.0,24,0.00,,,0.00,Wunderground v.1.15,2013-05-31 02:25:00,
2013-05-30 20:30:00,52.5,17.6,29.41,North,350,0.0,11.0,25,0.00,,,0.00,Wunderground v.1.15,2013-05-31 02:30:00,
2013-05-30 20:35:00,52.3,17.5,29.42,NNW,346,0.0,11.0,25,0.00,,,0.00,Wunderground v.1.15,2013-05-31 02:35:00,
2013-05-30 20:40:00,52.2,17.4,29.42,North,355,1.0,11.0,25,0.00,,,0.00,Wunderground v.1.15,2013-05-31 02:40:00,
2013-05-30 20:45:00,52.0,17.2,29.42,NW,322,1.0,11.0,25,0.00,,,0.00,Wunderground v.1.15,2013-05-31 02:45:00,
2013-05-30 20:50:00,51.7,17.9,29.42,NW,326,0.0,11.0,26,0.00,,,0.00,Wunderground v.1.15,2013-05-31 02:50:00,
2013-05-30 21:00:00,51.4,17.6,29.42,North,360,0.0,11.0,26,0.00,,,0.00,Wunderground v.1.15,2013-05-31 03:00:00,
2013-05-30 21:10:00,51.0,18.1,29.42,NW,308,0.0,11.0,27,0.00,,,0.00,Wunderground v.1.15,2013-05-31 03:10:00,
2013-05-30 21:15:00,50.9,18.1,29.42,WNW,287,0.0,11.0,27,0.00,,,0.00,Wunderground v.1.15,2013-05-31 03:15:00,
2013-05-30 21:20:00,50.8,18.0,29.42,WNW,283,0.0,11.0,27,0.00,,,0.00,Wunderground v.1.15,2013-05-31 03:20:00,
2013-05-30 21:30:00,50.5,18.6,29.43,SW,220,0.0,11.0,28,0.00,,,0.00,Wunderground v.1.15,2013-05-31 03:30:00,
2013-05-30 21:35:00,50.3,18.4,29.43,WSW,252,0.0,11.0,28,0.00,,,0.00,Wunderground v.1.15,2013-05-31 03:35:00,
2013-05-30 21:40:00,50.1,18.2,29.43,North,5,0.0,11.0,28,0.00,,,0.00,Wunderground v.1.15,2013-05-31 03:40:00,
2013-05-30 21:45:00,49.9,18.0,29.44,WNW,298,0.0,11.0,28,0.00,,,0.00,Wunderground v.1.15,2013-05-31 03:45:00,
2013-05-30 21:50:00,49.6,18.6,29.44,WNW,298,0.0,11.0,29,0.00,,,0.00,Wunderground v.1.15,2013-05-31 03:50:00,
2013-05-30 21:55:00,49.3,18.3,29.44,WNW,298,0.0,11.0,29,0.00,,,0.00,Wunderground v.1.15,2013-05-31 03:55:00,
2013-05-30 22:00:00,49.1,18.2,29.44,WNW,298,0.0,11.0,29,0.00,,,0.00,Wunderground v.1.15,2013-05-31 04:00:00,
2013-05-30 22:05:00,49.1,18.2,29.44,WNW,298,0.0,11.0,29,0.00,,,0.00,Wunderground v.1.15,2013-05-31 04:05:00,
2013-05-30 22:10:00,49.0,18.9,29.44,WNW,298,0.0,11.0,30,0.00,,,0.00,Wunderground v.1.15,2013-05-31 04:10:00,
2013-05-30 22:15:00,49.1,18.2,29.44,SSW,210,0.0,11.0,29,0.00,,,0.00,Wunderground v.1.15,2013-05-31 04:15:00,
2013-05-30 22:20:00,49.2,18.3,29.44,WSW,246,0.0,11.0,29,0.00,,,0.00,Wunderground v.1.15,2013-05-31 04:20:00,
2013-05-30 22:25:00,49.4,18.4,29.44,North,351,0.0,11.0,29,0.00,,,0.00,Wunderground v.1.15,2013-05-31 04:25:00,
2013-05-30 22:30:00,49.8,18.8,29.44,WSW,251,1.0,1.0,29,0.00,,,0.00,Wunderground v.1.15,2013-05-31 04:30:00,
2013-05-30 22:40:00,50.2,18.3,29.44,ESE,105,1.0,1.0,28,0.00,,,0.00,Wunderground v.1.15,2013-05-31 04:40:00,
2013-05-30 22:50:00,50.3,18.4,29.44,NNE,32,1.0,11.0,28,0.00,,,0.00,Wunderground v.1.15,2013-05-31 04:50:00,
2013-05-30 22:55:00,50.3,18.4,29.44,NW,318,1.0,11.0,28,0.00,,,0.00,Wunderground v.1.15,2013-05-31 04:55:00,
2013-05-30 23:00:00,50.3,18.4,29.44,ENE,62,1.0,1.0,28,0.00,,,0.00,Wunderground v.1.15,2013-05-31 05:00:00,
2013-05-30 23:05:00,50.4,18.5,29.44,NW,310,1.0,11.0,28,0.00,,,0.00,Wunderground v.1.15,2013-05-31 05:05:00,
2013-05-30 23:10:00,50.3,18.4,29.44,SE,144,1.0,11.0,28,0.00,,,0.00,Wunderground v.1.15,2013-05-31 05:10:00,
2013-05-30 23:15:00,50.3,18.4,29.45,NNW,342,1.0,11.0,28,0.00,,,0.00,Wunderground v.1.15,2013-05-31 05:15:00,
2013-05-30 23:20:00,50.2,18.3,29.45,NW,320,1.0,11.0,28,0.00,,,0.00,Wunderground v.1.15,2013-05-31 05:20:00,
2013-05-30 23:25:00,50.2,18.3,29.46,SW,229,1.0,11.0,28,0.00,,,0.00,Wunderground v.1.15,2013-05-31 05:25:00,
2013-05-30 23:30:00,50.2,18.3,29.46,WNW,284,1.0,1.0,28,0.00,,,0.00,Wunderground v.1.15,2013-05-31 05:30:00,
2013-05-30 23:40:00,50.3,20.0,29.46,NNW,327,2.0,11.0,30,0.00,,,0.00,Wunderground v.1.15,2013-05-31 05:40:00,
2013-05-30 23:45:00,50.6,20.3,29.46,NW,320,2.0,11.0,30,0.00,,,0.00,Wunderground v.1.15,2013-05-31 05:45:00,
2013-05-30 23:50:00,50.6,19.5,29.46,SSW,194,2.0,2.0,29,0.00,,,0.00,Wunderground v.1.15,2013-05-31 05:50:00,
2013-05-30 23:55:00,50.5,19.4,29.46,WNW,289,2.0,11.0,29,0.00,,,0.00,Wunderground v.1.15,2013-05-31 05:55:00,